User: anonymous   Login
Location: Evergreen Manor
(41.4083°N, 81.4939°W)
Time: 07:46:14
(UTC+00:00)
Language:

Cosmos 1452 Rocket - Orbit

View from above orbital plane
View from above orbital plane
View from above satellite
View from above satellite

Ground track
Ground track

The orbit data is extracted from the following two-line orbital elements,

1 13992U 83031B   20057.27979191 +.00000037 +00000-0 +21807-4 0  9990
2 13992 074.0551 002.0700 0003891 104.1240 256.0346 14.36178826929798
Epoch (UTC): 26 February 2020 06:42:54
Eccentricity: 0.0003891
inclination: 74.0551°
perigee height: 768 km
apogee height: 774 km
right ascension of ascending node: 2.0700°
argument of perigee: 104.1240°
revolutions per day: 14.36178826
mean anomaly at epoch: 256.0346°
orbit number at epoch: 92979

The dashed part of the orbit path shows where the satellite is in the earth's shadow,  

DLR